Altus AFB, OK

1:37 PM CDT on October 14, 2019 (GMT -0500)
Altus Air Force Base

Weather History for KLTS - August, 2019

Change the Weather History Date:

Tuesday, August 27, 2019

  Actual Average Record
Temperature  
Mean Temperature 76 °F -  
Max Temperature 84 °F 92 °F 108 °F (2011)
Min Temperature 69 °F 68 °F 61 °F (2010)
Cooling Degree Days 12    
Growing Degree Days 26 (Base 50)    
Moisture  
Dew Point 66 °F    
Average Humidity 72    
Maximum Humidity 88    
Minimum Humidity 56    
Precipitation  
Precipitation 0.17 in - - ()
Sea Level Pressure  
Sea Level Pressure 29.95 in    
Wind  
Wind Speed 9 mph ()    
Max Wind Speed 22 mph    
Max Gust Speed 30 mph    
Visibility 9.9 miles    
Events Rain , Thunderstorm    
Averages and records for this station are not official NWS values.
T = Trace of Precipitation, MM = Missing Value Source: Averaged Metar Reports

Daily Weather History Graph

Daily Weather History Graph

Search for Another Location

Airport or City:

Astronomy

Aug. 27, 2019 Rise Set
Actual Time 7:06 AM CDT 8:10 PM CDT
Civil Twilight 6:40 AM CDT 8:36 PM CDT
Nautical Twilight 6:09 AM CDT 9:07 PM CDT
Astronomical Twilight 5:37 AM CDT 9:38 PM CDT
Moon 3:41 AM CDT (8/27) 6:24 PM CDT (8/27)
Length of Visible Light 13h 55m
Length of Day
13h 03m
Waning Crescent, 11% of the Moon is Illuminated
Aug 27
Waning Crescent
Aug 30
New
Sep 5
First Quarter
Sep 13
Full
Sep 21
Last Quarter

Hourly Weather History & Observations

Time (CDT) Temp. Heat Index Dew Point Humidity Pressure Visibility Wind Dir Wind Speed Gust Speed Precip Events Conditions
12:56 AM 84.0 °F 87.8 °F 69.4 °F 61% 29.75 in 10.0 mi NE 13.8 mph 24.2 mph N/A   Scattered Clouds
1:56 AM 81.1 °F 84.7 °F 70.0 °F 69% 29.76 in 10.0 mi East 9.2 mph - N/A   Scattered Clouds
2:56 AM 79.5 °F - 68.4 °F 69% 29.78 in 10.0 mi NE 9.2 mph - N/A   Scattered Clouds
3:56 AM 77.9 °F - 61.9 °F 58% 29.82 in 10.0 mi ENE 20.7 mph 27.6 mph N/A   Scattered Clouds
4:26 AM 77.0 °F - 62.6 °F 61% 29.83 in 10.0 mi ENE 17.3 mph 29.9 mph N/A   Mostly Cloudy
4:56 AM 74.8 °F - 63.9 °F 69% 29.83 in 10.0 mi ENE 13.8 mph 20.7 mph N/A   Mostly Cloudy
5:11 AM 75.2 °F - 64.4 °F 69% 29.86 in 10.0 mi ENE 15.0 mph - N/A   Overcast
5:56 AM 74.3 °F - 65.8 °F 75% 29.86 in 10.0 mi NE 21.9 mph 27.6 mph N/A   Overcast
6:56 AM 75.0 °F - 64.0 °F 69% 29.92 in 10.0 mi NE 13.8 mph 19.6 mph N/A   Overcast
7:26 AM 73.4 °F - 64.4 °F 73% 29.92 in 10.0 mi East 9.2 mph - N/A   Overcast
7:56 AM 72.9 °F - 64.8 °F 76% 29.94 in 10.0 mi SE 10.4 mph - N/A   Overcast
8:49 AM 71.6 °F - 66.2 °F 83% 29.97 in 9.0 mi East 9.2 mph - N/A Rain Light Rain
8:56 AM 72.1 °F - 66.0 °F 81% 29.98 in 9.0 mi SE 8.1 mph - 0.00 in Rain Light Rain
8:58 AM 71.6 °F - 66.2 °F 83% 29.98 in 10.0 mi SE 9.2 mph - N/A   Overcast
9:28 AM 73.4 °F - 64.4 °F 73% 30.02 in 10.0 mi ESE 10.4 mph - N/A Thunderstorm Mostly Cloudy
9:56 AM 72.5 °F - 63.3 °F 73% 30.06 in 10.0 mi SE 4.6 mph - 0.00 in   Overcast
10:15 AM 73.4 °F - 62.6 °F 69% 30.05 in 10.0 mi ESE 6.9 mph - N/A Thunderstorm Mostly Cloudy
10:41 AM 73.4 °F - 64.4 °F 73% 29.98 in 10.0 mi NNE 6.9 mph - N/A Thunderstorm Thunderstorm
10:56 AM 74.1 °F - 64.4 °F 72% 29.99 in 10.0 mi NE 10.4 mph - N/A Thunderstorm Thunderstorm
11:56 AM 71.4 °F - 64.6 °F 79% 30.01 in 10.0 mi East 8.1 mph - N/A Thunderstorm Thunderstorm
12:14 PM 71.6 °F - 66.2 °F 83% 30.01 in 10.0 mi Calm Calm - N/A Rain , Thunderstorm Light Thunderstorms and Rain
12:15 PM 71.6 °F - 66.2 °F 83% 30.02 in 10.0 mi Calm Calm - N/A Rain , Thunderstorm Light Thunderstorms and Rain
12:26 PM 69.8 °F - 66.2 °F 88% 30.01 in 10.0 mi ENE 4.6 mph - N/A Rain , Thunderstorm Light Thunderstorms and Rain
12:56 PM 72.7 °F - 67.5 °F 84% 30.01 in 10.0 mi NNE 9.2 mph - 0.16 in   Overcast
1:56 PM 78.3 °F - 68.4 °F 71% 30.02 in 10.0 mi NE 10.4 mph - N/A   Overcast
2:56 PM 82.4 °F 84.2 °F 65.1 °F 56% 30.02 in 10.0 mi NE 4.6 mph - N/A   Overcast
3:18 PM 80.6 °F 82.7 °F 66.2 °F 61% 30.00 in 10.0 mi Variable 3.5 mph - N/A Rain , Thunderstorm Light Rain Showers
3:28 PM 80.6 °F 83.2 °F 68.0 °F 65% 29.99 in 10.0 mi ESE 3.5 mph - N/A Rain , Thunderstorm Light Rain Showers
3:43 PM 80.6 °F 83.2 °F 68.0 °F 65% 29.97 in 10.0 mi East 4.6 mph - N/A   Light Drizzle
3:56 PM 80.2 °F 82.8 °F 67.8 °F 66% 29.96 in 10.0 mi SE 6.9 mph - 0.01 in Thunderstorm Mostly Cloudy
5:56 PM 82.4 °F 85.0 °F 67.5 °F 60% 29.99 in 10.0 mi NNE 9.2 mph - N/A   Scattered Clouds
6:56 PM 80.4 °F 83.1 °F 68.0 °F 66% 29.97 in 10.0 mi NE 10.4 mph - N/A   Partly Cloudy
7:56 PM 77.9 °F - 68.2 °F 72% 29.97 in 10.0 mi ENE 6.9 mph - N/A   Clear
8:56 PM 76.1 °F - 68.7 °F 78% 29.99 in 10.0 mi ENE 5.8 mph - N/A   Partly Cloudy
9:56 PM 75.2 °F - 68.5 °F 80% 30.03 in 10.0 mi NE 5.8 mph - N/A   Mostly Cloudy
11:11 PM 75.2 °F - 68.0 °F 78% 30.04 in 10.0 mi NE 3.5 mph - N/A   Overcast